Kayseri, Turkey

3:52 AM EET on February 12, 2016 (GMT +0200)
Erkilet Air Base

Weather History for LTAU - May, 2013

Change the Weather History Date:

Tuesday, May 28, 2013

  Actual Average Record
Temperature  
Mean Temperature 60 °F -  
Max Temperature 77 °F 77 °F 77 °F (2008)
Min Temperature 42 °F 50 °F 42 °F (1999)
Degree Days  
Heating Degree Days 6    
Growing Degree Days 10 (Base 50)    
Moisture  
Dew Point 34 °F    
Average Humidity 38    
Maximum Humidity 66    
Minimum Humidity 14    
Precipitation  
Precipitation 0.00 in - - ()
Sea Level Pressure  
Sea Level Pressure 30.01 in    
Wind  
Wind Speed 5 mph ()    
Max Wind Speed 14 mph    
Max Gust Speed -    
Visibility 6.9 miles    
Events      
Averages and records for this station are not official NWS values.
T = Trace of Precipitation, MM = Missing Value Source: Averaged Metar Reports

Daily Weather History Graph

Daily Weather History Graph

Search for Another Location

Airport or City:

Trip Planner

Search our weather history database for the weather conditions in past years. The results will help you decide how hot, cold, wet, or windy it might be!

Date:

Astronomy

May. 28, 2013 Rise Set
Actual Time 5:16 AM EEST 7:54 PM EEST
Civil Twilight 4:45 AM EEST 8:25 PM EEST
Nautical Twilight 4:07 AM EEST 9:04 PM EEST
Astronomical Twilight 3:23 AM EEST 9:48 PM EEST
Moon 11:04 PM EEST (5/28) 8:39 AM EEST (5/28)
Length of Visible Light 15h 39m
Length of Day
14h 37m
Waning Gibbous, 85% of the Moon is Illuminated
May 28
Waning Gibbous
May 31
Last Quarter
Jun 8
New
Jun 16
First Quarter
Jun 23
Full

Hourly Weather History & Observations

Time (EEST) Temp. Windchill Dew Point Humidity Pressure Visibility Wind Dir Wind Speed Gust Speed Precip Events Conditions
12:20 AM 51.8 °F - 35.6 °F 54% 29.98 in - NE 2.3 mph - N/A   Clear
12:50 AM 50.0 °F - 33.8 °F 54% 29.95 in - NNE 5.8 mph - N/A   Clear
1:20 AM 46.4 °F 44.3 °F 33.8 °F 62% 29.95 in - NE 4.6 mph - N/A   Clear
1:50 AM 51.8 °F - 32.0 °F 47% 29.95 in - NNE 5.8 mph - N/A   Clear
2:20 AM 48.2 °F - 33.8 °F 58% 29.95 in - ENE 2.3 mph - N/A   Clear
2:50 AM 44.6 °F - 33.8 °F 66% 29.98 in - Calm Calm - N/A   Clear
3:00 AM 45 °F - 34 °F 56%  in 12 mi Calm Calm - -  
3:20 AM 44.6 °F - 33.8 °F 66% 29.98 in - WNW 1.2 mph - N/A   Clear
3:50 AM 44.6 °F 43.1 °F 33.8 °F 66% 29.98 in - ENE 3.5 mph - N/A   Clear
4:20 AM 48.2 °F - 33.8 °F 58% 29.98 in - Calm Calm - N/A   Clear
4:50 AM 44.6 °F - 33.8 °F 66% 30.01 in - Calm Calm - N/A   Clear
5:20 AM 46.4 °F 42.9 °F 35.6 °F 66% 30.04 in 6.2 mi SW 6.9 mph - N/A   Scattered Clouds
5:50 AM 51.8 °F - 39.2 °F 62% 30.04 in 6.2 mi WSW 5.8 mph - N/A   Scattered Clouds
6:20 AM 55.4 °F - 39.2 °F 54% 30.01 in 6.2 mi Variable 2.3 mph - N/A   Scattered Clouds
6:50 AM 59.0 °F - 41.0 °F 51% 30.01 in 6.2 mi Variable 2.3 mph - N/A   Scattered Clouds
7:20 AM 57.2 °F - 39.2 °F 51% 30.01 in - North 3.5 mph - N/A   Clear
7:50 AM 60.8 °F - 39.2 °F 45% 30.04 in - Variable 2.3 mph - N/A   Clear
8:20 AM 62.6 °F - 39.2 °F 42% 30.04 in - WSW 3.5 mph - N/A   Clear
8:50 AM 64.4 °F - 41.0 °F 42% 30.04 in 6.2 mi WSW 8.1 mph - N/A   Partly Cloudy
9:00 AM 65 °F - 42 °F 32%  in 12 mi WSW 8.1 mph - -   Scattered Clouds
9:20 AM 66.2 °F - 42.8 °F 43% 30.04 in 6.2 mi WSW 9.2 mph - N/A   Scattered Clouds
9:50 AM 66.2 °F - 44.6 °F 46% 30.04 in 6.2 mi WSW 8.1 mph - N/A   Scattered Clouds
10:20 AM 69.8 °F - 44.6 °F 40% 30.04 in 6.2 mi West 9.2 mph - N/A   Scattered Clouds
10:50 AM 69.8 °F - 42.8 °F 38% 30.04 in 6.2 mi West 9.2 mph - N/A   Scattered Clouds
11:20 AM 71.6 °F - 39.2 °F 31% 30.04 in 6.2 mi WNW 8.1 mph - N/A   Scattered Clouds
11:50 AM 73.4 °F - 39.2 °F 29% 30.04 in 6.2 mi West 8.1 mph - N/A   Scattered Clouds
12:20 PM 71.6 °F - 39.2 °F 31% 30.04 in 6.2 mi NW 2.3 mph - N/A   Scattered Clouds
12:50 PM 71.6 °F - 37.4 °F 29% 30.04 in 6.2 mi WSW 4.6 mph - N/A   Scattered Clouds
1:20 PM 75.2 °F - 39.2 °F 27% 30.01 in 6.2 mi WSW 6.9 mph - N/A   Scattered Clouds
1:50 PM 77.0 °F - 41.0 °F 28% 30.01 in 6.2 mi West 10.4 mph - N/A   Scattered Clouds
2:20 PM 73.4 °F - 39.2 °F 29% 30.01 in 6.2 mi West 13.8 mph - N/A   Scattered Clouds
2:50 PM 75.2 °F - 35.6 °F 24% 30.01 in 6.2 mi West 11.5 mph - N/A   Scattered Clouds
3:00 PM 76 °F - 37 °F 14%  in 12 mi West 11.5 mph - -   Partly Cloudy
3:20 PM 75.2 °F - 35.6 °F 24% 29.98 in 6.2 mi WNW 10.4 mph - N/A   Scattered Clouds
3:50 PM 77.0 °F - 30.2 °F 18% 29.98 in 6.2 mi WNW 9.2 mph - N/A   Partly Cloudy
4:20 PM 77.0 °F - 30.2 °F 18% 29.98 in 6.2 mi WNW 10.4 mph - N/A   Partly Cloudy
4:50 PM 77.0 °F - 26.6 °F 16% 29.98 in 6.2 mi WNW 11.5 mph - N/A   Partly Cloudy
5:20 PM 77.0 °F - 26.6 °F 16% 29.98 in 6.2 mi West 10.4 mph - N/A   Partly Cloudy
5:50 PM 75.2 °F - 26.6 °F 17% 29.98 in 6.2 mi West 10.4 mph - N/A   Partly Cloudy
6:20 PM 75.2 °F - 28.4 °F 18% 30.01 in 6.2 mi WNW 10.4 mph - N/A   Partly Cloudy
6:50 PM 73.4 °F - 21.2 °F 14% 30.01 in 6.2 mi WNW 10.4 mph - N/A   Partly Cloudy
7:20 PM 71.6 °F - 21.2 °F 15% 30.01 in 6.2 mi NW 6.9 mph - N/A   Partly Cloudy
7:50 PM 68.0 °F - 21.2 °F 17% 30.01 in 6.2 mi NNW 4.6 mph - N/A   Partly Cloudy
8:20 PM 64.4 °F - 23.0 °F 21% 30.04 in 6.2 mi WNW 5.8 mph - N/A   Partly Cloudy
8:50 PM 60.8 °F - 24.8 °F 25% 30.04 in - West 3.5 mph - N/A   Clear
9:00 PM 61 °F - 25 °F 14%  in 12 mi West 3.5 mph - -  
9:20 PM 55.4 °F - 26.6 °F 33% 30.04 in - WSW 8.1 mph - N/A   Clear
9:50 PM 55.4 °F - 26.6 °F 33% 30.06 in - WSW 5.8 mph - N/A   Clear
10:20 PM 59.0 °F - 32.0 °F 36% 30.06 in - West 6.9 mph - N/A   Clear
10:50 PM 57.2 °F - 32.0 °F 38% 30.06 in - East 2.3 mph - N/A   Clear
11:20 PM 57.2 °F - 33.8 °F 41% 30.06 in - Variable 1.2 mph - N/A   Clear
11:50 PM 53.6 °F - 33.8 °F 47% 30.06 in - NE 3.5 mph - N/A   Clear